Regional Weather Roundup
Issued by NWS

Home | Current Version | Previous Version | Text Only | Print | Product List | Glossary On
Versions: 1 2 3 4 5 6 7 8 9 10 11 12 13 14 15 16 17 18 19 20 21 22 23 24 25 26 27 28 29 30 31 32 33 34 35 36 37 38 39 40 41 42 43 44 45 46 47 48 49 50
000
ASUS45 KREV 290010
RWRNV
NEVADA REGIONAL WEATHER ROUNDUP
NATIONAL WEATHER SERVICE RENO NV
500 PM PDT FRI AUG 28 2015

NOTE: "FAIR" INDICATES FEW OR NO CLOUDS BELOW 12,000 FEET WITH NO
SIGNIFICANT WEATHER AND/OR OBSTRUCTIONS TO VISIBILITY.

NVZ001-003-004-290100-
WESTERN NEVADA

CITY           SKY/WX    TMP DP  RH WIND       PRES   REMARKS
RENO           CLOUDY    89  39  17 W12       30.02F
6HR MIN TEMP:  81; 6HR MAX TEMP:  93;

CARSON CITY    FAIR      88  37  16 W12G23    30.04F
MINDEN         FAIR      86  36  16 W8        30.05S
SLIDE MTN        N/A     61  37  41 SW12        N/A
PYRAMID LAKE     N/A     82 N/A N/A VRB8        N/A
FALLON         CLOUDY    91  36  14 N7        29.97F
6HR MIN TEMP:  84; 6HR MAX TEMP:  93;

LOVELOCK       CLOUDY    90  37  15 SW6       29.97F
6HR MIN TEMP:  84; 6HR MAX TEMP:  92;

HAWTHORNE      SUNNY     91  37  15 NW13      29.97F
$$

NVZ002-CAZ072-073-290100-
NORTHERN AND CENTRAL SIERRA

CITY           SKY/WX    TMP DP  RH WIND       PRES   REMARKS
S. LAKE TAHOE  MOSUNNY   80  37  21 VRB7G21   30.18F
6HR MIN TEMP:  78; 6HR MAX TEMP:  83;

TRUCKEE        PTSUNNY   77  39  25 SW15      30.17F
                   6HR MAX TEMP:  81;

SQUAW VLY 8000   N/A     68  37  32 W6          N/A
SUSANVILLE     SUNNY     86  34  15 SW21      30.01S
BLUE CANYON    MOSUNNY   79  38  22 SW10G20   30.16F
MAMMOTH LAKES  FAIR      79  37  22 SW12      30.26S
BRIDGEPORT     FAIR      82  32  16 SW12G23   30.20F
$$

NVZ030-031-036-290100-
NORTHERN NEVADA

CITY           SKY/WX    TMP DP  RH WIND       PRES   REMARKS
ELKO           PTSUNNY   85  41  21 S14G23    30.06S
6HR MIN TEMP:  79; 6HR MAX TEMP:  93; 6HR PCP:  0.02;

WINNEMUCCA     CLOUDY    89  35  14 SW15G24   30.00
6HR MIN TEMP:  83; 6HR MAX TEMP:  93;

WENDOVER       MOSUNNY   91  36  14 SE9       30.04F
$$

NVZ035-037-290100-
CENTRAL NEVADA

CITY           SKY/WX    TMP DP  RH WIND       PRES   REMARKS
ELY            MOSUNNY   80  45  28 S3        30.20F
6HR MIN TEMP:  72; 6HR MAX TEMP:  86; 6HR PCP:  0.14;

EUREKA           N/A     85  34  16 N5        30.12F
6HR MIN TEMP:  85; 6HR MAX TEMP:  92;

$$

NVZ013-014-290100-
SOUTH CENTRAL NEVADA

CITY           SKY/WX    TMP DP  RH WIND       PRES   REMARKS
TONOPAH        SUNNY     91  36  14 SW9       30.10F
6HR MIN TEMP:  85; 6HR MAX TEMP:  93;

$$

NVZ017-020-022-290100-
SOUTHERN NEVADA

CITY           SKY/WX    TMP DP  RH WIND       PRES   REMARKS
LAS VEGAS      MOSUNNY  105  47  14 E9        29.82F
6HR MIN TEMP:  96; 6HR MAX TEMP: 105;

N. LAS VEGAS   SUNNY    103  46  14 SE8       29.85F
6HR MIN TEMP:  95; 6HR MAX TEMP: 104;

NELLIS AFB     SUNNY    105  42  12 NE6       29.83F
6HR MIN TEMP:  96; 6HR MAX TEMP: 105;

HENDERSON      PTSUNNY  102  55  21 SW13G18   29.90F
MERCURY        SUNNY    101  41  12 S7G22     29.93F
6HR MIN TEMP:  95; 6HR MAX TEMP: 103;

$$


USA.gov is the U.S. government's official web portal to all federal, state and local government web resources and services.